Regional Weather Roundup
Issued by NWS

Home | Current Version | Previous Version | Text Only | Print | Product List | Glossary Off
Versions: 1 2 3 4 5 6 7 8 9 10 11 12 13 14 15 16 17 18 19 20 21 22 23 24 25 26 27 28 29 30 31 32 33 34 35 36 37 38 39 40 41 42 43 44 45 46 47 48 49 50

000
ASUS44 KMEG 270410
RWRTN
TENNESSEE HOURLY STATE WEATHER ROUNDUP
NATIONAL WEATHER SERVICE MEMPHIS TN
1000 PM CST SUN FEB 26 2017

TNZ002-004-019-021-049-052-054-088>092-270500-
WEST TENNESSEE

CITY           SKY/WX    TMP DP  RH WIND       PRES   REMARKS
MEMPHIS INTL   MOCLDY    56  35  45 S6        30.08F
NWS MEMPHIS      N/A     56 N/A N/A MISG        N/A
JACKSON        CLOUDY    53  28  38 CALM      30.12S
UNION CITY     CLOUDY    50  30  46 CALM      30.14R
PARIS          CLOUDY    48  28  46 NW5       30.13F
HUNTINGDON     CLOUDY    50  28  43 CALM      30.13R
$$

TNZ008-025-027-028-033-062-065-066-270500-
NORTH MIDDLE TENNESSEE

CITY           SKY/WX    TMP DP  RH WIND       PRES   REMARKS
NASHVILLE      MOCLDY    48  25  40 E5        30.14F
PORTLAND       CLOUDY    46  21  36 VRB5      30.14F
CLARKSVILLE    CLOUDY    48  22  35 SE3       30.16R
SMYRNA         MOCLDY    47  30  51 E5        30.15F
COOKEVILLE     MOCLDY    43  25  49 S5        30.16S
GALLATIN       CLOUDY    45  27  49 CALM      30.17F
CROSSVILLE     CLOUDY    45  19  35 S3        30.18F
$$

TNZ061-075-076-078-094-096-097-270500-
SOUTH MIDDLE TENNESSEE

CITY           SKY/WX    TMP DP  RH WIND       PRES   REMARKS
FAYETTEVILLE   CLEAR     48  25  40 S6        30.13S
TULLAHOMA      CLOUDY    48  18  29 SE6       30.15S
WINCHESTER     PTCLDY    48  23  37 E10       30.14S
MCMINNVILLE    PTCLDY    48  21  34 SE5       30.15S
COLUMBIA       PTCLDY    52  25  35 SE3       30.10F
SHELBYVILLE    MOCLDY    52  27  37 CALM      30.15S
$$

TNZ017-018-042-046-047-270500-
NORTHEAST TENNESSEE

CITY           SKY/WX    TMP DP  RH WIND       PRES   REMARKS
TRI CITIES     FAIR      32  22  66 N3        30.23F
ELIZABETHTON   FAIR      34  19  55 NE5       30.23F WCI  30
$$

TNZ012-013-036-069-073-074-270500-
CENTRAL EAST TENNESSEE

CITY           SKY/WX    TMP DP  RH WIND       PRES   REMARKS
KNOXVILLE      MOCLDY    43  23  45 CALM      30.22R
OAK RIDGE      CLOUDY    41  25  53 CALM      30.23
GATLINBURG     CLEAR     36  25  64 CALM      30.22S
MORRISTOWN     PTCLDY    39  23  52 NE3       30.22R
JACKSBORO      CLOUDY    37  27  65 CALM      30.24F
$$

TNZ083-085-099-270500-
SOUTHEAST TENNESSEE

CITY           SKY/WX    TMP DP  RH WIND       PRES   REMARKS
CHATTANOOGA    MOCLDY    42  32  67 CALM      30.21S
$$

SKY/WX REPORTED AS FAIR MEANS FEW OR NO CLOUDS BELOW
12 THOUSAND FEET.





USA.gov is the U.S. government's official web portal to all federal, state and local government web resources and services.